TimeCST,TemperatureF,Dew PointF,Humidity,Sea Level PressureIn,VisibilityMPH,Wind Direction,Wind SpeedMPH,Gust SpeedMPH,PrecipitationIn,Events,Conditions,WindDirDegrees,DateUTC
12:52 AM,34.0,26.1,73,30.42,10.0,SSE,6.9,-,N/A,,Overcast,160,2012-11-14 06:52:00
1:52 AM,34.0,26.1,73,30.41,10.0,SSE,6.9,-,N/A,,Overcast,150,2012-11-14 07:52:00
2:52 AM,34.0,26.1,73,30.41,10.0,SSE,9.2,-,N/A,,Overcast,160,2012-11-14 08:52:00
3:52 AM,34.0,26.1,73,30.40,10.0,SSE,11.5,19.6,N/A,,Mostly Cloudy,160,2012-11-14 09:52:00
4:52 AM,33.1,26.1,75,30.40,10.0,South,9.2,-,N/A,,Scattered Clouds,170,2012-11-14 10:52:00
5:52 AM,33.1,26.1,75,30.40,10.0,South,8.1,-,N/A,,Overcast,170,2012-11-14 11:52:00
6:52 AM,32.0,27.0,82,30.40,10.0,SSE,6.9,-,N/A,,Overcast,160,2012-11-14 12:52:00
7:52 AM,32.0,26.1,79,30.41,10.0,South,9.2,-,N/A,,Mostly Cloudy,170,2012-11-14 13:52:00
8:52 AM,35.1,28.0,76,30.42,10.0,South,11.5,-,N/A,,Clear,180,2012-11-14 14:52:00
9:52 AM,39.9,28.9,65,30.41,10.0,South,10.4,-,N/A,,Partly Cloudy,170,2012-11-14 15:52:00
10:52 AM,45.0,30.9,58,30.40,10.0,South,10.4,-,N/A,,Clear,180,2012-11-14 16:52:00
11:52 AM,48.0,30.9,52,30.37,10.0,SSW,11.5,-,N/A,,Clear,200,2012-11-14 17:52:00
12:52 PM,51.1,30.0,44,30.34,10.0,South,11.5,-,N/A,,Clear,170,2012-11-14 18:52:00
1:52 PM,52.0,30.0,43,30.32,10.0,South,9.2,-,N/A,,Clear,170,2012-11-14 19:52:00
2:52 PM,52.0,30.0,43,30.31,10.0,South,12.7,-,N/A,,Clear,180,2012-11-14 20:52:00
3:52 PM,50.0,28.9,44,30.31,10.0,South,11.5,-,N/A,,Clear,180,2012-11-14 21:52:00
4:52 PM,44.1,30.0,58,30.30,10.0,SSE,5.8,-,N/A,,Clear,160,2012-11-14 22:52:00
5:52 PM,41.0,30.0,65,30.31,10.0,SSE,6.9,-,N/A,,Clear,160,2012-11-14 23:52:00
6:52 PM,39.9,30.9,70,30.31,10.0,SSE,8.1,-,N/A,,Clear,160,2012-11-15 00:52:00
7:52 PM,39.0,30.0,70,30.31,10.0,SSE,8.1,-,N/A,,Clear,160,2012-11-15 01:52:00
8:52 PM,37.9,30.0,73,30.32,10.0,SSE,6.9,-,N/A,,Clear,160,2012-11-15 02:52:00
9:52 PM,37.0,30.0,76,30.31,10.0,SSE,8.1,-,N/A,,Clear,160,2012-11-15 03:52:00
10:52 PM,36.0,30.0,79,30.31,10.0,SSE,8.1,-,N/A,,Clear,160,2012-11-15 04:52:00
11:52 PM,35.1,28.9,78,30.31,10.0,SSE,8.1,-,N/A,,Clear,160,2012-11-15 05:52:00